Location: Buckeye Ditch
(40.9104°N, 122.9517°W)
Time: 19:39:42
(UTC+00:00)

BlueWalker 3 - Pass Details

Date: 27 June 2024
Orbit: 480 x 491 km, 53.2° (Epoch: 24 July)

Event Time Altitude Azimuth Distance (km) Brightness Sun altitude
Rises 05:28:26 0° 302° (WNW) 2,542 7.0 -15.1°
Reaches altitude 10° 05:31:44 10° 333° (NNW) 1,660 5.9 -15.4°
Maximum altitude 05:33:22 12° 359° (N) 1,516 5.1 -15.6°
Drops below altitude 10° 05:35:00 10° 25° (NNE) 1,659 4.9 -15.8°
Sets 05:38:19 0° 56° (ENE) 2,537 5.5 -16.2°
